DAL1327 KATL-KLAS

Flight info

Callsign DAL1327
Flight time 4h 8m
Altitude 32000
Route NASSA2 YAALL J14 PNH FTI J76 TBC SQIRE RKSTR4
Aircraft B738/M-SDE2E3FGHIRWXY/LB1

Departure

Time 2026-05-04 12:32
Airport Hartsfield Jackson Atlanta International Airport (KATL)

Arrival

Time 2026-05-04 16:41
Airport Harry Reid International Airport (KLAS)
Time Latitude Longitude Altitude Speed Heading
2026-05-04 11:55 33.64306 -84.43643 1034 ft 0 kts 90°
2026-05-04 12:14 33.64298 -84.43710 1034 ft 4 kts 45°
2026-05-04 12:15 33.64279 -84.43722 1034 ft 2 kts
2026-05-04 12:15 33.64278 -84.43722 1034 ft 1 kts 360°
2026-05-04 12:18 33.64289 -84.43722 1034 ft 3 kts 360°
2026-05-04 12:19 33.64316 -84.43722 1034 ft 5 kts 360°
2026-05-04 12:19 33.64360 -84.43722 1034 ft 7 kts 359°
2026-05-04 12:19 33.64417 -84.43723 1034 ft 9 kts 359°
2026-05-04 12:19 33.64486 -84.43720 1034 ft 11 kts
2026-05-04 12:20 33.64539 -84.43665 1035 ft 11 kts 75°
2026-05-04 12:20 33.64542 -84.43574 1035 ft 11 kts 90°
2026-05-04 12:20 33.64542 -84.43480 1035 ft 12 kts 90°
2026-05-04 12:20 33.64542 -84.43381 1035 ft 12 kts 89°
2026-05-04 12:21 33.64542 -84.43273 1035 ft 14 kts 90°
2026-05-04 12:21 33.64542 -84.43150 1035 ft 16 kts 90°
2026-05-04 12:21 33.64542 -84.43010 1035 ft 18 kts 90°
2026-05-04 12:21 33.64542 -84.42851 1034 ft 20 kts 90°
2026-05-04 12:22 33.64542 -84.42678 1034 ft 22 kts 90°
2026-05-04 12:22 33.64543 -84.42491 1034 ft 23 kts 90°
2026-05-04 12:22 33.64542 -84.42300 1034 ft 23 kts 90°
2026-05-04 12:22 33.64543 -84.42097 1034 ft 25 kts 90°
2026-05-04 12:23 33.64543 -84.41881 1034 ft 26 kts 90°
2026-05-04 12:23 33.64543 -84.41674 1035 ft 24 kts 90°
2026-05-04 12:23 33.64543 -84.41481 1035 ft 23 kts 90°
2026-05-04 12:23 33.64543 -84.41355 1035 ft 22 kts 90°
2026-05-04 12:24 33.64543 -84.41171 1035 ft 22 kts 90°
2026-05-04 12:24 33.64543 -84.40936 1034 ft 21 kts 90°
2026-05-04 12:24 33.64543 -84.40858 1034 ft 12 kts 90°
2026-05-04 12:24 33.64570 -84.40764 1034 ft 12 kts 77°
2026-05-04 12:25 33.64570 -84.40666 1033 ft 11 kts 90°
2026-05-04 12:25 33.64589 -84.40582 1033 ft 11 kts 37°
2026-05-04 12:25 33.64661 -84.40574 1032 ft 10 kts 360°
2026-05-04 12:25 33.64685 -84.40600 1032 ft 5 kts 257°
2026-05-04 12:26 33.64681 -84.40638 1032 ft 4 kts 269°
2026-05-04 12:26 33.64681 -84.40639 1032 ft 0 kts 269°
2026-05-04 12:31 33.64681 -84.40653 1032 ft 6 kts 269°
2026-05-04 12:31 33.64680 -84.40738 1032 ft 17 kts 270°
2026-05-04 12:31 33.64680 -84.41155 1035 ft 84 kts 270°
2026-05-04 12:32 33.64679 -84.42105 1032 ft 142 kts 270°
2026-05-04 12:32 33.64677 -84.44883 1902 ft 177 kts 269°
2026-05-04 12:32 33.64735 -84.46396 2488 ft 192 kts 280°
2026-05-04 12:33 33.65072 -84.48050 2723 ft 215 kts 283°
2026-05-04 12:33 33.65424 -84.49868 3046 ft 230 kts 282°
2026-05-04 12:33 33.65783 -84.51764 3596 ft 236 kts 282°
2026-05-04 12:33 33.66156 -84.53750 3914 ft 253 kts 282°
2026-05-04 12:34 33.66546 -84.55846 4539 ft 260 kts 282°
2026-05-04 12:34 33.66941 -84.57971 5345 ft 262 kts 282°
2026-05-04 12:34 33.67319 -84.60109 6041 ft 268 kts 282°
2026-05-04 12:34 33.67701 -84.62366 6729 ft 273 kts 282°
2026-05-04 12:35 33.68076 -84.64600 7404 ft 277 kts 282°
2026-05-04 12:35 33.68455 -84.66851 8099 ft 280 kts 282°
2026-05-04 12:35 33.68847 -84.69169 8772 ft 285 kts 282°
2026-05-04 12:35 33.69244 -84.71518 9457 ft 289 kts 282°
2026-05-04 12:36 33.69646 -84.73902 10145 ft 293 kts 282°
2026-05-04 12:36 33.70029 -84.76316 10817 ft 295 kts 278°
2026-05-04 12:36 33.70143 -84.78787 11444 ft 301 kts 271°
2026-05-04 12:36 33.70125 -84.81409 11624 ft 323 kts 270°
2026-05-04 12:37 33.70078 -84.84115 12095 ft 332 kts 269°
2026-05-04 12:37 33.70033 -84.86895 12809 ft 333 kts 270°
2026-05-04 12:37 33.70000 -84.89707 13603 ft 333 kts 270°
2026-05-04 12:37 33.69978 -84.92469 14296 ft 334 kts 270°
2026-05-04 12:38 33.69962 -84.95273 14977 ft 334 kts 271°
2026-05-04 12:38 33.69951 -84.98067 15665 ft 334 kts 271°
2026-05-04 12:38 33.69941 -85.00836 16352 ft 335 kts 271°
2026-05-04 12:38 33.69932 -85.03661 17021 ft 335 kts 272°
2026-05-04 12:39 33.69923 -85.06438 17665 ft 336 kts 272°
2026-05-04 12:39 33.69913 -85.09270 18350 ft 336 kts 272°
2026-05-04 12:39 33.69903 -85.12048 18913 ft 338 kts 272°
2026-05-04 12:39 33.69893 -85.14899 19443 ft 340 kts 272°
2026-05-04 12:40 33.69882 -85.17748 19953 ft 342 kts 272°
2026-05-04 12:40 33.69869 -85.20598 20451 ft 345 kts 272°
2026-05-04 12:40 33.69854 -85.23510 20975 ft 346 kts 272°
2026-05-04 12:40 33.69828 -85.26414 21483 ft 348 kts 271°
2026-05-04 12:41 33.69796 -85.29306 21969 ft 351 kts 271°
2026-05-04 12:41 33.69762 -85.32274 22422 ft 353 kts 271°
2026-05-04 12:41 33.69727 -85.35224 22905 ft 355 kts 271°
2026-05-04 12:41 33.69692 -85.38175 23384 ft 357 kts 271°
2026-05-04 12:42 33.69656 -85.41165 23818 ft 359 kts 271°
2026-05-04 12:42 33.69620 -85.44171 24194 ft 361 kts 271°
2026-05-04 12:42 33.69583 -85.47152 24601 ft 362 kts 271°
2026-05-04 12:42 33.69546 -85.50179 25012 ft 363 kts 271°
2026-05-04 12:43 33.69507 -85.53216 25405 ft 365 kts 271°
2026-05-04 12:43 33.69468 -85.56267 25778 ft 366 kts 271°
2026-05-04 12:43 33.69428 -85.59335 26155 ft 368 kts 271°
2026-05-04 12:43 33.69387 -85.62408 26532 ft 369 kts 271°
2026-05-04 12:44 33.69345 -85.65496 26899 ft 370 kts 271°
2026-05-04 12:44 33.69302 -85.68609 27263 ft 372 kts 270°
2026-05-04 12:44 33.69258 -85.71708 27608 ft 373 kts 270°
2026-05-04 12:44 33.69214 -85.74804 27916 ft 375 kts 270°
2026-05-04 12:45 33.69168 -85.77986 28273 ft 376 kts 270°
2026-05-04 12:45 33.69122 -85.81088 28619 ft 377 kts 270°
2026-05-04 12:45 33.69074 -85.84248 28964 ft 379 kts 270°
2026-05-04 12:45 33.69026 -85.87417 29274 ft 380 kts 270°
2026-05-04 12:46 33.68976 -85.90599 29579 ft 382 kts 270°
2026-05-04 12:46 33.68925 -85.93798 29871 ft 384 kts 270°
2026-05-04 12:46 33.68874 -85.97034 30167 ft 385 kts 270°
2026-05-04 12:46 33.68821 -86.00257 30411 ft 386 kts 270°
2026-05-04 12:47 33.68768 -86.03490 30652 ft 388 kts 270°
2026-05-04 12:47 33.68818 -86.06699 30887 ft 389 kts 274°
2026-05-04 12:47 33.69040 -86.09942 31099 ft 390 kts 276°
2026-05-04 12:47 33.69326 -86.13202 31315 ft 391 kts 276°
2026-05-04 12:48 33.69624 -86.16458 31546 ft 393 kts 276°
2026-05-04 12:48 33.69912 -86.19693 31748 ft 394 kts 276°
2026-05-04 12:48 33.70195 -86.22998 31993 ft 395 kts 276°
2026-05-04 12:48 33.70465 -86.26282 32124 ft 397 kts 276°
2026-05-04 12:49 33.70729 -86.29591 32116 ft 401 kts 276°
2026-05-04 12:49 33.71251 -86.36314 32129 ft 408 kts 276°
2026-05-04 12:50 33.71771 -86.43131 32126 ft 411 kts 276°
2026-05-04 12:50 33.72289 -86.49976 32123 ft 412 kts 276°
2026-05-04 12:51 33.72803 -86.56822 32121 ft 411 kts 276°
2026-05-04 12:51 33.73309 -86.63612 32132 ft 410 kts 276°
2026-05-04 12:52 33.73814 -86.70428 32133 ft 409 kts 276°
2026-05-04 12:52 33.74313 -86.77206 32129 ft 407 kts 276°
2026-05-04 12:53 33.74805 -86.83954 32123 ft 406 kts 276°
2026-05-04 12:53 33.75294 -86.90705 32108 ft 405 kts 276°
2026-05-04 12:54 33.75778 -86.97445 32076 ft 404 kts 276°
2026-05-04 12:54 33.76258 -87.04168 32087 ft 403 kts 276°
2026-05-04 12:55 33.76733 -87.10884 32060 ft 403 kts 276°
2026-05-04 12:55 33.77201 -87.17555 32058 ft 403 kts 276°
2026-05-04 12:56 33.77669 -87.24270 32125 ft 403 kts 276°
2026-05-04 12:56 33.78135 -87.31000 32130 ft 404 kts 276°
2026-05-04 12:57 33.78596 -87.37728 32129 ft 404 kts 276°
2026-05-04 12:57 33.79055 -87.44465 32121 ft 404 kts 276°
2026-05-04 12:58 33.79776 -87.51153 32114 ft 403 kts 283°
2026-05-04 12:58 33.81175 -87.57695 32093 ft 404 kts 285°
2026-05-04 12:59 33.82622 -87.64246 32079 ft 404 kts 284°
2026-05-04 12:59 33.84009 -87.70741 32065 ft 403 kts 284°
2026-05-04 13:00 33.85370 -87.77260 32050 ft 403 kts 284°
2026-05-04 13:00 33.86723 -87.83807 32055 ft 403 kts 284°
2026-05-04 13:01 33.88071 -87.90355 32054 ft 403 kts 284°
2026-05-04 13:01 33.89414 -87.96901 32052 ft 403 kts 284°
2026-05-04 13:02 33.90757 -88.03461 32048 ft 402 kts 284°
2026-05-04 13:02 33.92086 -88.09972 32033 ft 402 kts 283°
2026-05-04 13:03 33.93417 -88.16510 32048 ft 402 kts 283°
2026-05-04 13:03 33.94744 -88.23047 32050 ft 402 kts 283°
2026-05-04 13:04 33.96067 -88.29587 32049 ft 402 kts 283°
2026-05-04 13:04 33.97382 -88.36107 32054 ft 402 kts 283°
2026-05-04 13:05 33.98702 -88.42666 32050 ft 403 kts 283°
2026-05-04 13:05 34.00017 -88.49226 32050 ft 403 kts 283°
2026-05-04 13:06 34.01330 -88.55791 32059 ft 403 kts 283°
2026-05-04 13:06 34.02640 -88.62359 32068 ft 403 kts 283°
2026-05-04 13:07 34.03945 -88.68926 32075 ft 403 kts 283°
2026-05-04 13:07 34.05248 -88.75497 32073 ft 403 kts 283°
2026-05-04 13:08 34.06540 -88.82038 32078 ft 403 kts 283°
2026-05-04 13:08 34.07835 -88.88610 32074 ft 403 kts 283°
2026-05-04 13:09 34.09126 -88.95180 32077 ft 402 kts 283°
2026-05-04 13:09 34.10412 -89.01750 32071 ft 402 kts 283°
2026-05-04 13:10 34.11695 -89.08321 32060 ft 402 kts 283°
2026-05-04 13:10 34.12974 -89.14893 32055 ft 402 kts 283°
2026-05-04 13:11 34.14244 -89.21434 32054 ft 402 kts 283°
2026-05-04 13:11 34.15515 -89.28005 32052 ft 402 kts 283°
2026-05-04 13:12 34.16782 -89.34572 32063 ft 401 kts 283°
2026-05-04 13:12 34.18044 -89.41137 32062 ft 401 kts 283°
2026-05-04 13:13 34.19303 -89.47704 32070 ft 401 kts 283°
2026-05-04 13:13 34.20367 -89.53168 32069 ft 401 kts 284°
2026-05-04 13:14 34.21909 -89.59650 32095 ft 402 kts 286°
2026-05-04 13:14 34.23522 -89.66123 32078 ft 402 kts 285°
2026-05-04 13:15 34.25116 -89.72610 32050 ft 403 kts 285°
2026-05-04 13:15 34.26694 -89.79113 32053 ft 403 kts 285°
2026-05-04 13:16 34.28269 -89.85639 32053 ft 404 kts 285°
2026-05-04 13:16 34.29839 -89.92159 32058 ft 404 kts 285°
2026-05-04 13:17 34.31395 -89.98640 32059 ft 404 kts 285°
2026-05-04 13:17 34.32960 -90.05170 32027 ft 404 kts 285°
2026-05-04 13:18 34.34528 -90.11730 32032 ft 404 kts 285°
2026-05-04 13:18 34.36073 -90.18227 32036 ft 403 kts 285°
2026-05-04 13:19 34.37620 -90.24752 32041 ft 403 kts 285°
2026-05-04 13:19 34.39162 -90.31277 32044 ft 403 kts 285°
2026-05-04 13:20 34.40701 -90.37804 32048 ft 403 kts 285°
2026-05-04 13:20 34.42228 -90.44296 32051 ft 403 kts 285°
2026-05-04 13:21 34.43759 -90.50821 32050 ft 402 kts 285°
2026-05-04 13:21 34.45286 -90.57345 32047 ft 402 kts 285°
2026-05-04 13:22 34.46810 -90.63874 32026 ft 402 kts 285°
2026-05-04 13:22 34.48329 -90.70403 32031 ft 403 kts 285°
2026-05-04 13:23 34.49851 -90.76959 32020 ft 403 kts 285°
2026-05-04 13:23 34.51368 -90.83511 32026 ft 404 kts 285°
2026-05-04 13:24 34.52876 -90.90040 32018 ft 404 kts 285°
2026-05-04 13:24 34.54389 -90.96609 32020 ft 404 kts 285°
2026-05-04 13:25 34.56656 -91.06490 32019 ft 405 kts 285°
2026-05-04 13:25 34.58162 -91.13073 32019 ft 405 kts 285°
2026-05-04 13:26 34.59658 -91.19629 32025 ft 405 kts 285°
2026-05-04 13:26 34.61156 -91.26213 32024 ft 404 kts 285°
2026-05-04 13:27 34.62649 -91.32795 32027 ft 404 kts 284°
2026-05-04 13:27 34.64140 -91.39384 32032 ft 404 kts 284°
2026-05-04 13:28 34.65623 -91.45955 32036 ft 403 kts 284°
2026-05-04 13:28 34.67100 -91.52521 32037 ft 403 kts 284°
2026-05-04 13:29 34.68565 -91.59049 32038 ft 402 kts 284°
2026-05-04 13:29 34.70031 -91.65600 32034 ft 401 kts 284°
2026-05-04 13:30 34.71489 -91.72132 32032 ft 401 kts 284°
2026-05-04 13:30 34.72948 -91.78686 32026 ft 401 kts 284°
2026-05-04 13:31 34.74403 -91.85245 32019 ft 402 kts 284°
2026-05-04 13:31 34.75860 -91.91824 31993 ft 403 kts 284°
2026-05-04 13:32 34.77308 -91.98388 31998 ft 404 kts 284°
2026-05-04 13:32 34.78762 -92.04992 31993 ft 404 kts 284°
2026-05-04 13:33 34.80217 -92.11620 32017 ft 405 kts 284°
2026-05-04 13:33 34.81375 -92.18310 32022 ft 404 kts 277°
2026-05-04 13:34 34.81969 -92.25118 32014 ft 404 kts 276°
2026-05-04 13:34 34.82545 -92.31924 32014 ft 404 kts 277°
2026-05-04 13:35 34.83434 -92.42059 32010 ft 403 kts 277°
2026-05-04 13:36 34.84035 -92.48823 31992 ft 401 kts 277°
2026-05-04 13:36 34.84635 -92.55585 31997 ft 400 kts 277°
2026-05-04 13:37 34.85229 -92.62320 31996 ft 400 kts 277°
2026-05-04 13:37 34.85816 -92.69036 31984 ft 399 kts 277°
2026-05-04 13:38 34.86400 -92.75758 31983 ft 399 kts 277°
2026-05-04 13:38 34.86977 -92.82442 31972 ft 398 kts 277°
2026-05-04 13:39 34.87553 -92.89148 31967 ft 398 kts 277°
2026-05-04 13:39 34.88124 -92.95846 31969 ft 398 kts 277°
2026-05-04 13:40 34.88691 -93.02544 31968 ft 397 kts 277°
2026-05-04 13:40 34.89254 -93.09242 31958 ft 397 kts 277°
2026-05-04 13:41 34.89813 -93.15936 31955 ft 397 kts 277°
2026-05-04 13:41 34.90367 -93.22602 31940 ft 397 kts 277°
2026-05-04 13:42 34.91194 -93.32651 31946 ft 397 kts 277°
2026-05-04 13:42 34.91742 -93.39357 31935 ft 398 kts 277°
2026-05-04 13:43 34.92285 -93.46066 31935 ft 398 kts 277°
2026-05-04 13:43 34.92825 -93.52770 31940 ft 397 kts 277°
2026-05-04 13:44 34.93360 -93.59469 31938 ft 397 kts 277°
2026-05-04 13:44 34.93892 -93.66163 31966 ft 397 kts 277°
2026-05-04 13:45 34.94421 -93.72879 31945 ft 399 kts 277°
2026-05-04 13:45 34.94949 -93.79619 31944 ft 400 kts 277°
2026-05-04 13:46 34.95473 -93.86366 31937 ft 399 kts 277°
2026-05-04 13:46 34.95992 -93.93104 31939 ft 399 kts 277°
2026-05-04 13:47 34.96504 -93.99785 31942 ft 398 kts 277°
2026-05-04 13:47 34.97014 -94.06500 31939 ft 397 kts 277°
2026-05-04 13:48 34.97521 -94.13220 31932 ft 397 kts 277°
2026-05-04 13:48 34.98023 -94.19916 31927 ft 396 kts 278°
2026-05-04 13:49 34.98519 -94.26602 31934 ft 395 kts 278°
2026-05-04 13:49 34.99008 -94.33227 31953 ft 394 kts 278°
2026-05-04 13:50 34.99496 -94.39883 31962 ft 393 kts 278°
2026-05-04 13:50 34.99979 -94.46541 31965 ft 393 kts 278°
2026-05-04 13:51 35.00457 -94.53166 31973 ft 392 kts 278°
2026-05-04 13:51 35.00929 -94.59753 31961 ft 391 kts 278°
2026-05-04 13:52 35.01713 -94.69627 31931 ft 388 kts 282°
2026-05-04 13:53 35.02595 -94.76111 31926 ft 387 kts 282°
2026-05-04 13:53 35.03498 -94.82605 31928 ft 387 kts 282°
2026-05-04 13:54 35.04824 -94.92342 31921 ft 388 kts 282°
2026-05-04 13:55 35.06132 -95.02099 31913 ft 389 kts 282°
2026-05-04 13:55 35.07426 -95.11826 31915 ft 389 kts 282°
2026-05-04 13:56 35.08288 -95.18338 31912 ft 388 kts 282°
2026-05-04 13:57 35.09574 -95.28107 31914 ft 387 kts 282°
2026-05-04 13:58 35.11268 -95.41062 31918 ft 385 kts 282°
2026-05-04 13:58 35.12497 -95.50696 31941 ft 385 kts 282°
2026-05-04 13:59 35.13270 -95.57175 31910 ft 385 kts 282°
2026-05-04 14:00 35.14424 -95.66910 31917 ft 386 kts 282°
2026-05-04 14:00 35.15579 -95.76671 31907 ft 386 kts 282°
2026-05-04 14:01 35.16345 -95.83166 31894 ft 386 kts 282°
2026-05-04 14:02 35.17357 -95.91808 31890 ft 386 kts 282°
2026-05-04 14:02 35.18115 -95.98305 31898 ft 386 kts 282°
2026-05-04 14:03 35.18870 -96.04819 31888 ft 386 kts 282°
2026-05-04 14:03 35.19621 -96.11320 31877 ft 386 kts 282°
2026-05-04 14:04 35.20739 -96.21059 31882 ft 385 kts 282°
2026-05-04 14:04 35.21473 -96.27499 31869 ft 385 kts 282°
2026-05-04 14:05 35.22577 -96.37230 31880 ft 384 kts 281°
2026-05-04 14:06 35.23307 -96.43705 31871 ft 384 kts 281°
2026-05-04 14:06 35.24033 -96.50180 31852 ft 384 kts 281°
2026-05-04 14:07 35.24755 -96.56647 31893 ft 383 kts 281°
2026-05-04 14:07 35.25467 -96.63064 31897 ft 383 kts 281°
2026-05-04 14:08 35.26185 -96.69556 31898 ft 383 kts 281°
2026-05-04 14:08 35.26895 -96.76016 31896 ft 383 kts 281°
2026-05-04 14:09 35.27951 -96.85672 31864 ft 382 kts 281°
2026-05-04 14:10 35.28996 -96.95315 31884 ft 381 kts 281°
2026-05-04 14:10 35.29688 -97.01734 31888 ft 380 kts 281°
2026-05-04 14:11 35.30377 -97.08155 31896 ft 381 kts 281°
2026-05-04 14:11 35.31407 -97.17820 31880 ft 381 kts 281°
2026-05-04 14:12 35.32084 -97.24219 31870 ft 382 kts 281°
2026-05-04 14:13 35.33102 -97.33898 31867 ft 382 kts 281°
2026-05-04 14:13 35.33776 -97.40343 31868 ft 382 kts 281°
2026-05-04 14:14 35.34449 -97.46823 31871 ft 383 kts 281°
2026-05-04 14:14 35.35452 -97.56527 31870 ft 383 kts 281°
2026-05-04 14:15 35.35797 -97.69545 31863 ft 384 kts 274°
2026-05-04 14:16 35.35630 -97.79347 31846 ft 383 kts 274°
2026-05-04 14:17 35.35472 -97.89103 31846 ft 382 kts 274°
2026-05-04 14:18 35.35310 -97.98850 31852 ft 381 kts 274°
2026-05-04 14:19 35.35083 -98.11790 31849 ft 380 kts 274°
2026-05-04 14:19 35.34964 -98.18271 31843 ft 380 kts 274°
2026-05-04 14:20 35.34842 -98.24739 31830 ft 380 kts 274°
2026-05-04 14:20 35.34716 -98.31178 31819 ft 380 kts 274°
2026-05-04 14:21 35.34522 -98.40881 31799 ft 379 kts 274°
2026-05-04 14:21 35.34388 -98.47339 31818 ft 379 kts 274°
2026-05-04 14:22 35.34251 -98.53789 31819 ft 379 kts 274°
2026-05-04 14:22 35.34110 -98.60236 31827 ft 378 kts 274°
2026-05-04 14:23 35.33893 -98.69897 31823 ft 378 kts 274°
2026-05-04 14:24 35.33744 -98.76331 31814 ft 378 kts 273°
2026-05-04 14:24 35.33593 -98.82759 31769 ft 377 kts 273°
2026-05-04 14:25 35.33439 -98.89140 31767 ft 377 kts 273°
2026-05-04 14:25 35.33205 -98.98775 31815 ft 377 kts 273°
2026-05-04 14:26 35.33045 -99.05191 31831 ft 377 kts 273°
2026-05-04 14:26 35.32882 -99.11632 31830 ft 377 kts 273°
2026-05-04 14:27 35.32716 -99.18044 31840 ft 377 kts 272°
2026-05-04 14:27 35.32546 -99.24467 31847 ft 377 kts 272°
2026-05-04 14:28 35.32372 -99.30890 31845 ft 377 kts 272°
2026-05-04 14:28 35.32196 -99.37313 31832 ft 378 kts 272°
2026-05-04 14:29 35.31833 -99.50110 31805 ft 378 kts 272°
2026-05-04 14:30 35.31649 -99.56430 31800 ft 378 kts 272°
2026-05-04 14:31 35.31362 -99.66082 31786 ft 378 kts 272°
2026-05-04 14:32 35.30967 -99.78938 31763 ft 378 kts 272°
2026-05-04 14:32 35.30765 -99.85378 31738 ft 378 kts 272°
2026-05-04 14:33 35.30558 -99.91835 31750 ft 377 kts 272°
2026-05-04 14:33 35.30349 -99.98233 31749 ft 377 kts 271°
2026-05-04 14:34 35.30137 -100.04652 31753 ft 377 kts 271°
2026-05-04 14:34 35.29922 -100.11066 31752 ft 377 kts 271°
2026-05-04 14:35 35.29704 -100.17451 31747 ft 377 kts 271°
2026-05-04 14:35 35.29482 -100.23840 31740 ft 377 kts 271°
2026-05-04 14:36 35.29256 -100.30249 31745 ft 377 kts 271°
2026-05-04 14:36 35.29027 -100.36655 31746 ft 377 kts 271°
2026-05-04 14:37 35.28795 -100.43064 31741 ft 377 kts 271°
2026-05-04 14:37 35.28559 -100.49476 31744 ft 377 kts 271°
2026-05-04 14:38 35.28320 -100.55889 31743 ft 377 kts 271°
2026-05-04 14:38 35.28076 -100.62328 31739 ft 377 kts 271°
2026-05-04 14:39 35.27830 -100.68736 31746 ft 377 kts 271°
2026-05-04 14:39 35.27583 -100.75092 31751 ft 378 kts 270°
2026-05-04 14:40 35.27200 -100.84774 31748 ft 379 kts 270°
2026-05-04 14:40 35.26943 -100.91181 31755 ft 379 kts 270°
2026-05-04 14:41 35.26680 -100.97621 31757 ft 379 kts 270°
2026-05-04 14:42 35.26145 -101.10498 31754 ft 379 kts 270°
2026-05-04 14:42 35.25873 -101.16906 31753 ft 379 kts 270°
2026-05-04 14:43 35.25597 -101.23341 31756 ft 379 kts 270°
2026-05-04 14:43 35.25318 -101.29773 31770 ft 378 kts 270°
2026-05-04 14:44 35.25035 -101.36213 31797 ft 378 kts 270°
2026-05-04 14:44 35.24751 -101.42590 31835 ft 378 kts 270°
2026-05-04 14:45 35.24463 -101.49008 31864 ft 378 kts 270°
2026-05-04 14:45 35.24171 -101.55429 31895 ft 378 kts 270°
2026-05-04 14:46 35.23876 -101.61850 31920 ft 378 kts 270°
2026-05-04 14:46 35.23596 -101.68275 31899 ft 377 kts 272°
2026-05-04 14:47 35.24110 -101.74626 31921 ft 374 kts 280°
2026-05-04 14:47 35.24992 -101.80893 31918 ft 374 kts 280°
2026-05-04 14:48 35.25864 -101.87185 31885 ft 373 kts 280°
2026-05-04 14:48 35.26719 -101.93426 31858 ft 373 kts 280°
2026-05-04 14:49 35.27566 -101.99667 31830 ft 373 kts 280°
2026-05-04 14:49 35.28414 -102.05944 31795 ft 374 kts 279°
2026-05-04 14:50 35.29257 -102.12207 31773 ft 372 kts 279°
2026-05-04 14:50 35.30095 -102.18459 31765 ft 372 kts 279°
2026-05-04 14:51 35.30787 -102.23645 31771 ft 372 kts 279°
2026-05-04 14:51 35.31621 -102.29914 31777 ft 371 kts 279°
2026-05-04 14:52 35.32447 -102.36155 31773 ft 371 kts 279°
2026-05-04 14:52 35.33267 -102.42371 31774 ft 371 kts 279°
2026-05-04 14:53 35.34090 -102.48634 31782 ft 371 kts 279°
2026-05-04 14:53 35.34900 -102.54826 31786 ft 370 kts 279°
2026-05-04 14:54 35.35712 -102.61053 31785 ft 370 kts 279°
2026-05-04 14:54 35.36521 -102.67288 31793 ft 370 kts 279°
2026-05-04 14:55 35.37324 -102.73504 31797 ft 370 kts 279°
2026-05-04 14:55 35.38126 -102.79735 31787 ft 370 kts 278°
2026-05-04 14:56 35.38924 -102.85964 31789 ft 370 kts 278°
2026-05-04 14:56 35.39721 -102.92207 31787 ft 370 kts 278°
2026-05-04 14:57 35.40509 -102.98415 31785 ft 370 kts 278°
2026-05-04 14:57 35.41298 -103.04653 31783 ft 370 kts 278°
2026-05-04 14:58 35.42084 -103.10887 31795 ft 370 kts 278°
2026-05-04 14:58 35.42871 -103.17163 31791 ft 370 kts 278°
2026-05-04 14:59 35.43652 -103.23415 31785 ft 371 kts 278°
2026-05-04 15:00 35.44813 -103.32757 31793 ft 372 kts 278°
2026-05-04 15:00 35.45588 -103.39032 31813 ft 372 kts 278°
2026-05-04 15:01 35.46747 -103.48466 31824 ft 372 kts 278°
2026-05-04 15:01 35.47519 -103.54777 31818 ft 372 kts 278°
2026-05-04 15:02 35.48279 -103.61026 31833 ft 374 kts 278°
2026-05-04 15:02 35.49043 -103.67339 31826 ft 374 kts 278°
2026-05-04 15:03 35.49807 -103.73667 31813 ft 375 kts 278°
2026-05-04 15:03 35.50563 -103.79969 31798 ft 374 kts 278°
2026-05-04 15:04 35.51319 -103.86293 31769 ft 375 kts 278°
2026-05-04 15:04 35.52070 -103.92612 31791 ft 373 kts 278°
2026-05-04 15:05 35.52813 -103.98883 31806 ft 373 kts 278°
2026-05-04 15:05 35.53555 -104.05181 31798 ft 372 kts 278°
2026-05-04 15:06 35.54293 -104.11471 31804 ft 372 kts 278°
2026-05-04 15:07 35.55397 -104.20933 31804 ft 372 kts 278°
2026-05-04 15:07 35.56123 -104.27197 31798 ft 372 kts 277°
2026-05-04 15:08 35.56851 -104.33502 31802 ft 373 kts 277°
2026-05-04 15:08 35.57571 -104.39769 31803 ft 373 kts 277°
2026-05-04 15:09 35.58293 -104.46084 31804 ft 373 kts 277°
2026-05-04 15:09 35.59014 -104.52416 31803 ft 374 kts 277°
2026-05-04 15:10 35.60090 -104.61930 31807 ft 374 kts 277°
2026-05-04 15:11 35.61154 -104.71402 31816 ft 374 kts 277°
2026-05-04 15:11 35.61856 -104.77692 31813 ft 374 kts 277°
2026-05-04 15:12 35.62560 -104.84029 31808 ft 374 kts 277°
2026-05-04 15:12 35.63262 -104.90382 31810 ft 374 kts 277°
2026-05-04 15:13 35.63959 -104.96716 31808 ft 374 kts 277°
2026-05-04 15:13 35.64648 -105.03007 32071 ft 374 kts 277°
2026-05-04 15:14 35.65341 -105.09359 32073 ft 374 kts 277°
2026-05-04 15:14 35.66022 -105.15702 32075 ft 374 kts 276°
2026-05-04 15:15 35.66662 -105.22035 32071 ft 374 kts 276°
2026-05-04 15:15 35.67294 -105.28386 32042 ft 374 kts 276°
2026-05-04 15:16 35.68240 -105.37919 31979 ft 374 kts 276°
2026-05-04 15:17 35.69183 -105.47464 31911 ft 375 kts 276°
2026-05-04 15:17 35.70116 -105.56975 31855 ft 376 kts 276°
2026-05-04 15:18 35.70739 -105.63373 31850 ft 377 kts 276°
2026-05-04 15:19 35.71664 -105.72928 31893 ft 370 kts 275°
2026-05-04 15:19 35.72566 -105.82330 31870 ft 367 kts 275°
2026-05-04 15:20 35.73161 -105.88580 31878 ft 368 kts 275°
2026-05-04 15:20 35.73753 -105.94838 32038 ft 368 kts 275°
2026-05-04 15:21 35.74340 -106.01064 32089 ft 368 kts 275°
2026-05-04 15:22 35.75220 -106.10478 32072 ft 368 kts 275°
2026-05-04 15:22 35.76084 -106.19796 32050 ft 367 kts 275°
2026-05-04 15:23 35.76660 -106.26054 32013 ft 368 kts 275°
2026-05-04 15:23 35.77233 -106.32311 31975 ft 368 kts 275°
2026-05-04 15:24 35.78366 -106.44795 31920 ft 366 kts 275°
2026-05-04 15:25 35.78926 -106.51021 31891 ft 366 kts 275°
2026-05-04 15:26 35.79756 -106.60315 31896 ft 366 kts 275°
2026-05-04 15:26 35.80584 -106.69681 31903 ft 367 kts 274°
2026-05-04 15:27 35.81408 -106.79070 31939 ft 367 kts 274°
2026-05-04 15:28 35.82223 -106.88445 31927 ft 367 kts 274°
2026-05-04 15:29 35.83031 -106.97839 31925 ft 368 kts 274°
2026-05-04 15:30 35.84887 -107.19725 31921 ft 367 kts 274°
2026-05-04 15:31 35.85671 -107.29122 31912 ft 368 kts 274°
2026-05-04 15:32 35.86961 -107.44759 31924 ft 367 kts 273°
2026-05-04 15:34 35.88234 -107.60440 31914 ft 368 kts 273°
2026-05-04 15:34 35.88988 -107.69857 31900 ft 368 kts 273°
2026-05-04 15:35 35.89736 -107.79284 31891 ft 369 kts 272°
2026-05-04 15:36 35.90476 -107.88691 31871 ft 368 kts 272°
2026-05-04 15:36 35.90965 -107.94977 31875 ft 368 kts 272°
2026-05-04 15:37 35.91451 -108.01259 31873 ft 368 kts 272°
2026-05-04 15:37 35.91934 -108.07545 31851 ft 368 kts 272°
2026-05-04 15:38 35.92414 -108.13830 31858 ft 368 kts 272°
2026-05-04 15:38 35.92888 -108.20085 31843 ft 368 kts 272°
2026-05-04 15:39 35.93360 -108.26366 31841 ft 368 kts 272°
2026-05-04 15:40 35.93985 -108.34737 31844 ft 368 kts 272°
2026-05-04 15:40 35.94450 -108.41019 31840 ft 367 kts 272°
2026-05-04 15:41 35.94914 -108.47332 31829 ft 368 kts 272°
2026-05-04 15:41 35.95373 -108.53626 31833 ft 368 kts 272°
2026-05-04 15:42 35.95826 -108.59893 31829 ft 368 kts 272°
2026-05-04 15:42 35.96277 -108.66160 31836 ft 368 kts 272°
2026-05-04 15:43 35.96726 -108.72456 31857 ft 368 kts 272°
2026-05-04 15:43 35.97172 -108.78754 31844 ft 368 kts 272°
2026-05-04 15:44 35.97616 -108.85063 31885 ft 369 kts 271°
2026-05-04 15:44 35.98058 -108.91398 31879 ft 370 kts 271°
2026-05-04 15:45 35.98496 -108.97730 31871 ft 370 kts 271°
2026-05-04 15:45 35.98930 -109.04041 31885 ft 369 kts 271°
2026-05-04 15:46 35.99359 -109.10332 31874 ft 369 kts 271°
2026-05-04 15:46 35.99787 -109.16660 31881 ft 369 kts 271°
2026-05-04 15:47 36.00212 -109.22989 31883 ft 368 kts 271°
2026-05-04 15:47 36.00632 -109.29298 31875 ft 368 kts 271°
2026-05-04 15:48 36.01045 -109.35570 31870 ft 368 kts 271°
2026-05-04 15:48 36.01664 -109.45022 31866 ft 368 kts 271°
2026-05-04 15:49 36.02072 -109.51332 31861 ft 369 kts 271°
2026-05-04 15:49 36.02475 -109.57603 31854 ft 369 kts 271°
2026-05-04 15:50 36.02878 -109.63933 31859 ft 369 kts 271°
2026-05-04 15:50 36.03276 -109.70247 31856 ft 368 kts 271°
2026-05-04 15:51 36.03671 -109.76557 31858 ft 368 kts 271°
2026-05-04 15:51 36.04064 -109.82882 31872 ft 369 kts 270°
2026-05-04 15:52 36.04450 -109.89162 31860 ft 369 kts 270°
2026-05-04 15:52 36.04838 -109.95512 31856 ft 369 kts 270°
2026-05-04 15:53 36.05221 -110.01847 31859 ft 370 kts 270°
2026-05-04 15:53 36.05601 -110.08191 31867 ft 370 kts 270°
2026-05-04 15:54 36.05978 -110.14534 31866 ft 370 kts 270°
2026-05-04 15:54 36.06353 -110.20900 31874 ft 371 kts 270°
2026-05-04 15:55 36.06724 -110.27264 31869 ft 371 kts 270°
2026-05-04 15:55 36.07092 -110.33631 31873 ft 371 kts 269°
2026-05-04 15:56 36.07454 -110.39954 31876 ft 371 kts 269°
2026-05-04 15:56 36.07816 -110.46329 31870 ft 371 kts 269°
2026-05-04 15:57 36.08174 -110.52698 31869 ft 372 kts 269°
2026-05-04 15:57 36.08530 -110.59092 31867 ft 372 kts 269°
2026-05-04 15:58 36.08882 -110.65471 31874 ft 372 kts 269°
2026-05-04 15:58 36.09232 -110.71885 31865 ft 372 kts 269°
2026-05-04 15:59 36.09576 -110.78246 31868 ft 372 kts 269°
2026-05-04 15:59 36.09917 -110.84604 31874 ft 372 kts 268°
2026-05-04 16:00 36.10255 -110.90983 31868 ft 371 kts 268°
2026-05-04 16:00 36.10589 -110.97347 31867 ft 371 kts 268°
2026-05-04 16:01 36.10920 -111.03724 31866 ft 371 kts 268°
2026-05-04 16:01 36.11246 -111.10065 31868 ft 370 kts 268°
2026-05-04 16:02 36.11570 -111.16426 31857 ft 370 kts 268°
2026-05-04 16:03 36.11901 -111.25930 31855 ft 367 kts 262°
2026-05-04 16:03 36.11103 -111.32107 31857 ft 363 kts 254°
2026-05-04 16:04 36.09858 -111.38153 31855 ft 364 kts 254°
2026-05-04 16:04 36.07990 -111.47276 31848 ft 364 kts 254°
2026-05-04 16:05 36.06752 -111.53356 31843 ft 365 kts 254°
2026-05-04 16:06 36.04896 -111.62441 31853 ft 365 kts 254°
2026-05-04 16:07 36.02406 -111.74622 31877 ft 365 kts 254°
2026-05-04 16:08 35.99909 -111.86795 31974 ft 366 kts 254°
2026-05-04 16:09 35.96764 -112.02029 32086 ft 366 kts 253°
2026-05-04 16:10 35.94234 -112.14211 32095 ft 367 kts 253°
2026-05-04 16:11 35.91691 -112.26385 32084 ft 367 kts 253°
2026-05-04 16:12 35.87845 -112.44675 31956 ft 367 kts 253°
2026-05-04 16:13 35.85267 -112.56863 31864 ft 368 kts 253°
2026-05-04 16:14 35.82677 -112.69032 31861 ft 368 kts 253°
2026-05-04 16:16 35.79424 -112.84246 31863 ft 369 kts 252°
2026-05-04 16:17 35.76136 -112.99530 31845 ft 364 kts 252°
2026-05-04 16:18 35.74256 -113.08240 30890 ft 340 kts 251°
2026-05-04 16:18 35.73648 -113.11044 30419 ft 337 kts 251°
2026-05-04 16:19 35.71852 -113.19298 28964 ft 328 kts 251°
2026-05-04 16:19 35.70678 -113.24680 28006 ft 322 kts 251°
2026-05-04 16:20 35.68948 -113.32584 26681 ft 318 kts 252°
2026-05-04 16:20 35.67759 -113.37993 25800 ft 341 kts 252°
2026-05-04 16:21 35.65921 -113.46365 24390 ft 334 kts 253°
2026-05-04 16:22 35.65540 -113.52023 23555 ft 336 kts 274°
2026-05-04 16:22 35.66938 -113.60566 22447 ft 347 kts 277°
2026-05-04 16:23 35.68409 -113.69237 21366 ft 341 kts 277°
2026-05-04 16:24 35.70279 -113.80650 20008 ft 339 kts 276°
2026-05-04 16:25 35.71198 -113.86322 19329 ft 339 kts 277°
2026-05-04 16:26 35.73034 -113.97715 17948 ft 343 kts 277°
2026-05-04 16:26 35.74413 -114.06302 16930 ft 336 kts 277°
2026-05-04 16:27 35.75303 -114.11865 16270 ft 326 kts 277°
2026-05-04 16:28 35.77291 -114.18754 15438 ft 322 kts 294°
2026-05-04 16:28 35.80490 -114.25808 14530 ft 308 kts 294°
2026-05-04 16:29 35.84651 -114.34917 13324 ft 306 kts 301°
2026-05-04 16:30 35.88586 -114.41069 12461 ft 299 kts 303°
2026-05-04 16:31 35.91060 -114.44964 12402 ft 278 kts 303°
2026-05-04 16:31 35.94526 -114.50523 11355 ft 284 kts 302°
2026-05-04 16:32 35.98188 -114.56443 10280 ft 291 kts 303°
2026-05-04 16:33 36.00647 -114.60434 9700 ft 290 kts 303°
2026-05-04 16:33 36.03086 -114.64397 9100 ft 289 kts 303°
2026-05-04 16:34 36.05301 -114.68481 8527 ft 284 kts 296°
2026-05-04 16:34 36.06288 -114.70549 8387 ft 272 kts 296°
2026-05-04 16:35 36.08031 -114.76426 7761 ft 225 kts 261°
2026-05-04 16:35 36.07688 -114.82397 6348 ft 235 kts 263°
2026-05-04 16:36 36.07614 -114.84358 6040 ft 228 kts 262°
2026-05-04 16:36 36.07500 -114.88201 5439 ft 216 kts 264°
2026-05-04 16:37 36.07459 -114.91829 4801 ft 204 kts 264°
2026-05-04 16:37 36.07436 -114.93560 4312 ft 200 kts 263°
2026-05-04 16:37 36.07424 -114.96758 3914 ft 180 kts 265°
2026-05-04 16:38 36.07417 -114.99706 3647 ft 165 kts 263°
2026-05-04 16:39 36.07384 -115.04041 3165 ft 160 kts 265°
2026-05-04 16:39 36.07361 -115.06887 2898 ft 170 kts 268°
2026-05-04 16:40 36.07374 -115.09825 2513 ft 172 kts 265°
2026-05-04 16:40 36.07367 -115.12771 2109 ft 169 kts 264°
2026-05-04 16:41 36.07376 -115.14779 2093 ft 34 kts 282°
2026-05-04 16:41 36.07669 -115.15212 2110 ft 14 kts 336°
2026-05-04 16:42 36.07879 -115.15269 2098 ft 6 kts 92°
2026-05-04 16:43 36.07878 -115.15167 2098 ft 6 kts 90°
2026-05-04 16:43 36.07875 -115.15066 2097 ft 6 kts 92°
2026-05-04 16:43 36.07873 -115.15017 2097 ft 6 kts 95°
2026-05-04 16:44 36.07857 -115.14781 2096 ft 9 kts 94°
2026-05-04 16:45 36.07847 -115.14630 2095 ft 9 kts 95°
2026-05-04 16:46 36.07832 -115.14420 2095 ft 8 kts 94°
2026-05-04 16:46 36.07826 -115.14289 2095 ft 7 kts 86°
2026-05-04 16:47 36.07840 -115.14169 2094 ft 7 kts 48°
2026-05-04 16:47 36.07936 -115.14151 2093 ft 7 kts 25°
2026-05-04 16:48 36.07992 -115.14043 2092 ft 1 kts 60°
2026-05-04 16:48 36.07995 -115.14037 2092 ft 1 kts 61°